РПИ Баку

Район полетной информации Баку (UBBA) обеспечивает организацию воздушного движения в воздушном пространстве Азербайджана в сети VATSIM.

В состав РПИ входит пять международных аэропортов, четыре аэропорта совместного базирования, и четыре военных аэропорта.

Первого апреля 1996 года по решению дирекции Государственного концерна ГА под эгидой ICAO и Европейского банка развития создано предприятие аэронавигационного обслуживания  «Азераэронавигация» (AZANS) получившее статус юридической самостоятельности первым из структурных подразделений Государственного Концерна «Азербайджан Хава Йоллары». Абсолютной  задачей нового предприятия стало обеспечение безопасности полетов в воздушном пространстве Азербайджанской Республики с возложением функции обслуживания и координации воздушного движения.

С целью готовности к обслуживанию постоянно растущего потока воздушного движения на должном уровне и в соответствии с международными требованиями и стандартами был разработан широкоформатный проект нового здания Управления Воздушного Движения «Азераэронавигация» и Главного Центра ЕС УВД, и в 2012 году начато сооружение комплекса с Вышкой высотой 65 метров. В новом Центре будут применены современные технологии и достижения технического развития с прогнозом на будущее, такие как автоматизированные системы УВД производителя из Испании «ИНДРА», OLDİ, Searidge camera Surveillance Technologies AMHS,  ADS-B, A-SMGCS и т.д.

Руководитель РПИ

Karim Garifullin*

Инструкторы РПИ
Grigori Badalov (Instructor)
Входит в состав
ЗЦ Ростов-на-Дону

Диспетчеры РПИ

Диспетчер Рейтинг Допуски *
George Kalandadze Controller UBBA_CTR
Grigori Badalov Instructor UBBA_CTR
Ivan Chernov Senior Controller UBBA_CTR
Karim Garifullin Instructor UBBA_CTR
Valeriy Polostyanoy Instructor UBBA_CTR
Andrey Zonov Student 2 UBBB_GND
Artem Tsendrovsky Senior Student UBBB_APP
Atsamaz Khodov Senior Student UBBB_TWR
Gregory Adamov Student 2 UBBB_TWR
Marian Florin Student UBBB_GND

Аэропорты РПИ

ICAO Город Название Погода
UBBB Баку Баку UBBB 020100Z 33010KT CAVOK 22/14 Q1007 NOSIG
UBBQ Габала Габала UBBQ 020000Z 23003KT 9999 NSC 17/09 Q1009 NOSIG RMK MT OP
UBBG Гянджа Гянджа UBBG 020100Z 20004KT 160V240 9999 SCT083 21/13 Q1008 NOSIG
UBBN Нахичевань Нахичевань UBBN 020100Z 07004KT 9999 NSC 21/06 Q1007 NOSIG RMK MT OP QFE681
UBBL Ленкорань Ленкорань UBBL 020100Z 00000KT 9999 NSC 17/13 Q1008 NOSIG RMK MT OP